www.pogodaiklimat.ru

Погода и климат >> Архив погоды >> Украина >> Чаплино


ПОГОДА в Чаплино

  • Прогноз погоды в Чаплино
  • Монитор погоды в Чаплино

АРХИВ ПОГОДЫ в Чаплино

Время (UTC), дата Ветер
(напр.,м/с)
 
Видим.   Явления Облачность Т
(С)
Тd
(С)
f
(%)
Тe
(С)
Тes
(С)
Комфортность P
(гПа)
Po
(гПа)
Тmin
(С)
Tmax
(С)
R
(мм)
R24
(мм)
S
(см)
09 12.08 С 1 20 км 1/1 1000 м
[Cu hum]
+26.6 +14.9 49 +29 +45 жарко 1018.4 998.5
12 12.08 В 1 20 км 6/6 960 м
[Cu med, cong]
+27.0 +15.0 48 +30 +35 душно 1017.8 998.0
15 12.08 СВ 1 20 км 1/1 1000 м
[Cu hum]
+27.0 +15.0 48 +30 +32 душно 1017.6 997.7
18 12.08 штиль 0 10 км ясно +21.0 +15.5 71 +24 +24 комфорт 1018.6 998.2 +28.5
21 12.08 ЮВ 1 10 км ясно +19.0 +12.8 67 +21 +21 комфорт 1018.8 998.4
00 13.08 Ю 2 10 км ясно +19.0 +12.6 66 +21 +21 комфорт 1019.2 998.7
03 13.08 Ю 2 10 км ясно +18.2 +11.7 66 +19 +19 1019.6 999.0
06 13.08 Ю 3 10 км ясно +23.0 +13.3 54 +26 +32 жарко 1019.2 999.1 +17.5
09 13.08 Ю 1 20 км 1/1 1000 м
[Cu hum]
+27.9 +13.6 41 +30 +45 жарко 1018.6 988.7
12 13.08 Ю 2 20 км ясно +29.1 +12.4 36 +30 +41 жарко 1017.2 997.4
15 13.08 ЮВ 1 20 км ясно +29.0 +12.5 36 +30 +32 жарко 1016.1 996.3
18 13.08 Ю 1 10 км ясно +24.2 +12.6 48 +26 +26 жарко 1016.6 996.4 +30.0
21 13.08 Ю 2 10 км ясно +21.1 +12.0 56 +23 +23 комфорт 1017.0 996.7
00 14.08 Ю 2 10 км ясно +20.2 +10.0 52 +22 +22 комфорт 1016.5 996.1
03 14.08 Ю 1 10 км ясно +19.0 +10.0 56 +21 +21 комфорт 1016.7 996.2
06 14.08 Ю 2 20 км ясно +24.4 +9.9 40 +25 +32 комфорт 1016.2 996.2 +18.9
09 14.08 Ю 2 20 км ясно +28.5 +11.1 34 +29 +44 жарко 1014.6 994.9
12 14.08 ЮВ 3 20 км ясно +30.6 +10.6 29 +31 +40 жарко 1012.9 993.3
15 14.08 ЮВ 1 10 км ясно +30.0 +10.9 31 +30 +32 жарко 1011.8 992.1
18 14.08 штиль 0 10 км ясно +21.1 +12.8 59 +23 +23 комфорт 1011.9 991.7 +30.6
21 14.08 В 1 10 км ясно +20.6 +10.5 52 +23 +23 комфорт 1011.2 990.4
00 15.08 ЮВ 1 10 км ясно +17.7 +10.0 61 +19 +19 1011.1 990.6
03 15.08 В 1 10 км ясно +17.3 +9.5 60 +18 +18 1011.0 990.5
06 15.08 ЮВ 1 10 км 3/0
[Ci fib]
+25.0 +9.3 37 +26 +33 жарко 1010.2 990.2 +16.1
09 15.08 ЮВ 1 10 км 8/0
[Ci]
+29.8 +7.6 25 +29 +43 жарко 1008.5 988.9
12 15.08 ЮВ 2 10 км 9/0
[Ci]
+31.8 +6.1 20 +30 +39 жарко 1007.2 987.7
15 15.08 штиль 0 10 км 10/0
[Ac und]
+28.6 +13.5 39 +30 +31 жарко 1006.9 987.2
18 15.08 СВ 1 10 км 10/0
[Ac und]
+23.9 +13.8 53 +26 +26 жарко 1007.1 987.1 +32.1
21 15.08 СВ 1 10 км 9/0
[Ac trans]
+22.0 +12.3 54 +24 +24 комфорт 1006.2 986.1
00 16.08 СВ 2 10 км 8/0
[Ac trans]
+21.2 +12.0 56 +23 +23 комфорт 1006.6 986.5
03 16.08 СЗ 1 10 км 9/0
[Ac trans Ci fib]
+19.4 +12.8 66 +22 +22 комфорт 1007.1 986.9
06 16.08 СВ 1 10 км 8/0
[Ac trans Ci fib]
+21.3 +14.3 64 +24 +29 комфорт 1007.5 987.4 +19.2
09 16.08 С 2 10 км 5/0
[Ac trans Ci fib]
+28.1 +15.1 45 +31 +42 душно 1006.6 987.0
12 16.08 З 1 10 км 8/0
[Ac As Ci fib]
+30.5 +14.0 37 +32 +40 жарко 1006.1 986.6
15 16.08 СЗ 1 10 км 10/3 600 м
[Cb cap Ac As]
+27.9 +16.7 51 +32 +32 душно 1006.4 986.7
18 16.08 СЗ 1 10 км 10/0
[Ac und]
+24.6 +16.9 62 +28 +28 душно 1007.2 987.4 +31.0
21 16.08 СЗ 2 10 км 10/10 840 м
[Sc]
+20.7 +15.7 73 +24 +24 комфорт 1008.9 988.8
00 17.08 СЗ 2 10 км 10/6 840 м
[Sc Ac und]
+18.8 +15.1 79 +20 +20 1008.4 988.1
03 17.08 СЗ 1 10 км в посл. час ливневой дождь 10/10 660 м
[Cb cap]
+17.1 +15.2 89 +18 +18 1008.6 988.2
06 17.08 СЗ 1 10 км в посл. час ливневой дождь 9/9 600 м
[Cb cap]
+17.4 +14.8 85 +18 +19 1009.4 989.0 +16.5 0.5
09 17.08 СЗ 1 10 км 9/9 700 м
[Cb cap]
+20.8 +15.6 72 +25 +27 комфорт 1009.1 989.0
12 17.08 З 1 10 км 9/9 700 м
[Cb cap]
+23.2 +14.2 57 +27 +28 душно 1008.8 988.8
15 17.08 СЗ 2 10 км 8/0
[Ac trans]
+21.3 +13.7 62 +24 +25 комфорт 1009.6 989.4
18 17.08 штиль 0 10 км 3/0
[Ac trans]
+18.5 +13.2 71 +19 +19 1010.5 990.1 +24.0
21 17.08 СЗ 1 10 км 8/0
[Ci fib]
+15.9 +13.9 88 +17 +17 1010.8 990.3
00 18.08 штиль 0 10 км ясно +13.4 +11.1 86 +13 +13 1011.3 990.6
03 18.08 штиль 0 10 км 8/0
[Ac As Ci fib]
+13.8 +12.7 93 +13 +13 1011.9 991.1
06 18.08 СЗ 1 10 км 10/10 660 м
[Cb cap]
+15.8 +14.0 89 +16 +16 1012.4 991.8 +12.5
09 18.08 СЗ 2 10 км 9/8 660 м
[Cb cap Ac trans]
+20.6 +13.6 64 +24 +26 комфорт 1012.2 992.0
12 18.08 СЗ 2 10 км 9/5 930 м
[Cu med, cong Ac trans]
+23.6 +14.1 55 +26 +29 жарко 1012.3 992.2
15 18.08 СЗ 3 10 км 9/0
[Ac und]
+21.4 +14.2 64 +24 +25 комфорт 1013.4 993.1
18 18.08 СЗ 1 10 км 8/0
[Ac trans]
+18.2 +13.0 72 +20 +20 1014.8 994.4 +24.0
21 18.08 С 1 10 км 3/0
[Ac trans]
+17.3 +13.0 76 +18 +18 1015.0 994.4
00 19.08 СВ 1 10 км ясно +14.4 +12.0 85 +15 +15 1016.2 995.5
03 19.08 С 1 10 км ясно +13.2 +11.5 89 +13 +13 1017.5 996.7
06 19.08 С 2 10 км ясно +19.4 +13.8 70 +21 +28 комфорт 1017.6 997.2 +12.8

 

Местоположение метеостанции Чаплино (Днепропетровская область, Украина): широта 48.13 долгота 36.23 высота над уровнем моря 175 м.

В архиве по умолчанию представлена погода в Чаплино за последнюю неделю. Архивные данные за месяц целиком и за предыдущие месяцы, начиная с января 2011 года, Вы можете получить, выбрав интересующий диапазон дат из раскрывающегося списка и нажав кнопку "Ввод!".


*Определитесь, кто Вы:
робот инопланетянин человек

Внимание! Время в таблицах - всемирное. Для получения местного времени необходимо прибавить поправку, которая равна 2 ч.

Смотрите также архив погоды в соседних городах и на ближайших метеорологических станциях:

Погода в Гуляйполе (Запорожская область, Украина) (51 км)
Погода в Павлограде (Днепропетровская область, Украина) (53 км)
Погода в Александрополе (Днепропетровская область, Украина) (57 км)
Погода в Синельниково (Днепропетровская область, Украина) (62 км)
Погода в Лозовой (Харьковская область, Украина) (86 км)
Погода в Кирилловке (Запорожская область, Украина) (89 км)
Погода в Запорожье (Запорожская область, Украина) (97 км)
Погода в Волновахе (Донецкая область, Украина) (101 км)
Погода в Губинихе (Днепропетровская область, Украина) (104 км)
Погода в Днепре (Днепропетровская область, Украина) (107 км)

Пояснения к столбцам:

Ветер - указаны скорость ветра в м/с - средняя за 10 мин, порывы в срок и между сроками (в фигурных скобках) и направление, откуда дует ветер: С - северный, СВ - северо-восточный, В - восточный, ЮВ - юго-восточный, Ю - южный, ЮЗ - юго-западный, З - западный, СЗ - северо-западный.
Видимость - горизонтальная дальность видимости в метрах или километрах. При видимости от 1 до 10 км при отсутствии осадков обычно наблюдается дымка, при ухудшении видимости до 1 км и менее - туман. В сухую погоду видимость может ухудшаться дымом, пылью или мглою.
Явления - указаны атмосферные явления, наблюдавшиеся в срок или в последний час перед сроком; фигурными скобками обозначены явления, наблюдавшиеся между сроками (за 1-3 часа до срока); квадратными скобками обозначены град или гололедные отложения с указанием их диаметра в мм.
Облачность - указаны через наклонную черту общая и нижняя облачность в баллах и высота нижней границы облаков в метрах; квадратными скобками обозначены формы облаков: Ci - перистые, Cs - перисто-слоистые, Cc - перисто-кучевые, Ac - высококучевые, As - высокослоистые, Sc - слоисто-кучевые, Ns - слоисто-дождевые, Cu - кучевые, Cb - кучево-дождевые. Подробнее классификацию облаков см. в Атласе облаков (PDF).
T - Температура воздуха - температура, измеренная на высоте 2 м над землей.
Td - Температура точки росы - температура, при понижении до которой содержащийся в воздухе водяной пар достигнет насыщения.
f - Относительная влажность воздуха - влажноcть воздуха, измеренная на высоте 2 м над землей.
Te - Эффективная температура - температура, которую ощущает одетый по сезону человек в тени. Характеристика душности погоды. При расчете учитывается влияние влажности воздуха и скорости ветра на теплоощущения человека.
Tes - Эффективная температура на солнце - температура, которую ощущает человек, с поправкой на солнечный нагрев. Характеристика знойности погоды. Зависит от высоты солнца над горизонтом, облачности и скорости ветра. Ночью, в пасмурную погоду, а также при ветре 12 м/с и более поправка равна нулю.
P - Атмосферное давление - приведенное к уровню моря атмосферное давление.
Po - Атмосферное давление - измеренное на уровне метеостанции атмосферное давление.
Tmin - Минимальная температура - минимум температуры воздуха на высоте 2 м над землей.
Tmax - Максимальная температура - максимум температуры воздуха на высоте 2 м над землей.
R - Количество осадков - Количество выпавших осадков за период времени, мм. При наведении курсора мыши на число - период времени, за который выпало указанное количество осадков.
R24 - Количество осадков - Количество выпавших осадков за 24 часа, мм.
S - Снежный покров - Высота снежного покрова, см. При наведении курсора мыши на число - состояние снежного покрова и степень покрытия местности в баллах.